Date String (YYYY-MM-DD hh:mm:ss) UTC,Instrument flags,Ambient pressure (hPa),Sample flow (lpm),Bypass flow (lpm),Sample temperature (°C),Ambient temperature (°C),ASC tube jacket temperature (°C),LED temperature (°C),Box temperature (°C),Sample RH (%),Span deviation,Mass concentration (μg/m³),Mass concentration (μg/m³),Mass concentration (μg/m³)
DateTimeUTC,F1_M11,P_M11,Q1_M11,Q2_M11,T1_M11,T2_M11,T3_M11,T4_M11,T5_M11,U1_M11,ZSPAN_M11,X2_M11,X0_M11,X1_M11
2023-04-23 18:00:00,,0829.4,5.00,0.00,22.6,21.3,00.0,31.0,24.3,15.7,0000.0,0005.19,0007.41,0004.98
2023-04-23 18:01:00,,0829.5,5.00,0.00,22.6,21.3,00.0,31.0,24.3,15.9,0000.0,0005.22,0007.46,0005.00
2023-04-23 18:02:00,,0829.5,5.00,0.00,22.7,21.3,00.0,31.0,24.3,16.0,0000.0,0005.28,0007.58,0005.04
2023-04-23 18:03:00,,0829.4,5.00,0.00,22.7,21.4,00.0,31.0,24.3,15.9,0000.0,0005.34,0007.69,0005.06
2023-04-23 18:04:00,,0829.5,5.01,0.00,22.7,21.4,00.0,31.0,24.4,15.8,0000.0,0005.35,0007.71,0005.09
2023-04-23 18:05:00,,0829.4,5.00,0.00,22.7,21.5,00.0,31.0,24.4,16.2,0000.0,0005.37,0007.72,0005.10
2023-04-23 18:06:00,,0829.4,5.00,0.00,22.8,21.5,00.0,31.0,24.4,16.3,0000.0,0005.38,0007.72,0005.11
2023-04-23 18:07:00,,0829.3,4.99,0.00,22.8,21.6,00.0,31.0,24.4,15.8,0000.0,0005.37,0007.66,0005.12
2023-04-23 18:08:00,,0829.3,5.00,0.00,22.8,21.6,00.0,31.0,24.4,15.3,0000.0,0005.40,0007.65,0005.14
2023-04-23 18:09:00,,0829.4,5.00,0.00,22.8,21.6,00.0,31.1,24.5,15.2,0000.0,0005.43,0007.69,0005.17
2023-04-23 18:10:00,,0829.3,5.01,0.00,22.8,21.7,00.0,31.1,24.5,15.3,0000.0,0005.45,0007.69,0005.19
2023-04-23 18:11:00,,0829.4,4.99,0.00,22.9,21.7,00.0,31.1,24.5,15.7,0000.0,0005.47,0007.86,0005.20
2023-04-23 18:12:00,,0829.3,4.99,0.00,22.9,21.7,00.0,31.1,24.5,15.8,0000.0,0005.50,0007.99,0005.24
2023-04-23 18:13:00,,0829.3,5.00,0.00,22.9,21.6,00.0,31.1,24.5,15.6,0000.0,0005.55,0008.06,0005.28
2023-04-23 18:14:00,,0829.3,5.01,0.00,22.9,21.6,00.0,31.1,24.5,16.1,0000.0,0005.62,0008.16,0005.33
2023-04-23 18:15:00,,0829.4,5.01,0.00,22.9,21.6,00.0,31.1,24.5,16.0,0000.0,0005.67,0008.22,0005.38
2023-04-23 18:16:00,,0829.3,5.01,0.00,22.9,21.5,00.0,31.1,24.5,15.8,0001.1,0005.73,0008.34,0005.42
2023-04-23 18:17:00,,0829.3,5.00,0.00,22.9,21.6,00.0,31.1,24.5,16.0,0002.2,0005.76,0008.33,0005.46
2023-04-23 18:18:00,,0829.3,5.00,0.00,22.9,21.6,00.0,31.2,24.5,15.5,0001.0,0005.83,0008.42,0005.51
2023-04-23 18:19:00,,0829.3,5.00,0.00,22.9,21.6,00.0,31.2,24.5,15.9,0002.7,0005.89,0008.51,0005.56
2023-04-23 18:20:00,,0829.4,5.00,0.00,22.9,21.6,00.0,31.2,24.5,16.0,0002.3,0005.94,0008.61,0005.60
2023-04-23 18:21:00,,0829.3,4.99,0.00,22.9,21.6,00.0,31.2,24.6,16.2,0002.0,0005.97,0008.64,0005.64
2023-04-23 18:22:00,,0829.3,4.99,0.00,22.9,21.6,00.0,31.2,24.5,16.0,0001.6,0006.04,0008.75,0005.71
2023-04-23 18:23:00,,0829.3,5.00,0.00,22.9,21.6,00.0,31.2,24.5,15.9,0001.4,0006.09,0008.53,0005.75
2023-04-23 18:24:00,,0829.3,5.00,0.00,22.9,21.5,00.0,31.2,24.5,15.5,0001.3,0006.10,0008.50,0005.78
2023-04-23 18:25:00,,0829.2,5.00,0.00,22.9,21.5,00.0,31.2,24.5,15.6,0000.4,0006.09,0008.46,0005.79
2023-04-23 18:26:00,,0829.1,5.00,0.00,22.9,21.5,00.0,31.2,24.5,15.6,0000.1,0006.11,0008.47,0005.80
2023-04-23 18:27:00,,0829.1,5.00,0.00,22.9,21.5,00.0,31.2,24.6,15.7,0000.1,0006.12,0008.44,0005.82
2023-04-23 18:28:00,,0829.1,5.00,0.00,22.9,21.6,00.0,31.2,24.6,15.6,0000.1,0006.14,0009.06,0005.83
2023-04-23 18:29:00,,0829.1,5.01,0.00,23.0,21.7,00.0,31.2,24.6,15.6,-000.2,0006.15,0009.37,0005.84
2023-04-23 18:30:00,,0829.1,5.00,0.00,23.0,21.7,00.0,31.2,24.6,15.6,-000.0,0006.17,0009.40,0005.86
2023-04-23 18:31:00,,0829.1,5.00,0.00,23.0,21.8,00.0,31.3,24.6,15.6,0000.3,0006.18,0009.37,0005.87
2023-04-23 18:32:00,,0829.1,4.99,0.00,23.0,21.8,00.0,31.3,24.7,16.0,0000.8,0006.19,0009.39,0005.88
2023-04-23 18:33:00,,0829.1,4.99,0.00,23.0,21.8,00.0,31.3,24.7,15.8,0001.2,0006.18,0009.41,0005.86
2023-04-23 18:34:00,,0829.1,4.99,0.00,23.0,21.8,00.0,31.3,24.7,15.2,0001.0,0006.16,0009.39,0005.83
2023-04-23 18:35:00,,0829.1,5.00,0.00,23.0,21.8,00.0,31.3,24.7,15.0,0001.2,0006.14,0009.41,0005.82
2023-04-23 18:36:00,,0829.0,5.00,0.00,23.1,21.8,00.0,31.3,24.7,15.0,0001.4,0006.11,0009.35,0005.80
2023-04-23 18:37:00,,0829.0,5.01,0.00,23.1,21.8,00.0,31.3,24.8,15.0,0001.9,0006.09,0009.32,0005.78
2023-04-23 18:38:00,,0829.0,5.00,0.00,23.1,21.8,00.0,31.4,24.8,15.6,0002.1,0006.04,0009.25,0005.75
2023-04-23 18:39:00,,0829.0,5.00,0.00,23.1,21.9,00.0,31.4,24.8,15.5,0002.2,0006.01,0008.73,0005.74
2023-04-23 18:40:00,,0829.0,5.00,0.00,23.1,21.9,00.0,31.4,24.8,15.8,0002.2,0006.01,0008.28,0005.73
2023-04-23 18:41:00,,0829.0,5.00,0.00,23.1,21.9,00.0,31.4,24.8,15.6,0002.5,0006.00,0008.29,0005.72
2023-04-23 18:42:00,,0829.0,5.00,0.00,23.1,21.9,00.0,31.4,24.8,15.1,0002.2,0006.01,0008.32,0005.72
2023-04-23 18:43:00,,0829.0,5.00,0.00,23.1,21.9,00.0,31.4,24.8,15.0,0001.6,0006.04,0008.39,0005.74
2023-04-23 18:44:00,,0828.9,5.00,0.00,23.1,21.9,00.0,31.4,24.8,15.0,0001.5,0006.07,0008.39,0005.77
2023-04-23 18:45:00,,0829.0,5.00,0.00,23.1,21.8,00.0,31.4,24.8,15.0,0001.3,0006.10,0008.38,0005.81
2023-04-23 18:46:00,,0828.9,5.00,0.00,23.1,21.8,00.0,31.4,24.8,14.8,0001.3,0006.16,0008.46,0005.85
2023-04-23 18:47:00,,0828.9,5.00,0.00,23.1,21.8,00.0,31.4,24.8,15.1,0001.2,0006.20,0008.53,0005.87
2023-04-23 18:48:00,,0829.0,5.00,0.00,23.1,21.8,00.0,31.4,24.8,15.0,0000.9,0006.25,0008.58,0005.91
2023-04-23 18:49:00,,0828.9,5.00,0.00,23.1,21.7,00.0,31.5,24.7,15.0,0000.9,0006.31,0008.68,0005.96
2023-04-23 18:50:00,,0828.8,4.99,0.00,23.1,21.6,00.0,31.5,24.7,15.2,0000.9,0006.37,0008.74,0006.00
2023-04-23 18:51:00,,0828.8,5.01,0.00,23.1,21.6,00.0,31.5,24.6,14.9,0001.5,0006.41,0008.80,0006.03
2023-04-23 18:52:00,,0828.8,5.00,0.00,23.1,21.5,00.0,31.5,24.6,14.8,0001.1,0006.46,0008.86,0006.06
2023-04-23 18:53:00,,0828.8,5.01,0.00,23.1,21.5,00.0,31.4,24.6,15.0,0001.3,0006.47,0008.81,0006.09
2023-04-23 18:54:00,,0828.8,5.00,0.00,23.1,21.5,00.0,31.4,24.6,15.2,0001.7,0006.47,0008.80,0006.11
2023-04-23 18:55:00,,0828.8,5.00,0.00,23.1,21.6,00.0,31.4,24.6,14.9,0001.9,0006.49,0009.11,0006.13
2023-04-23 18:56:00,,0828.8,5.00,0.00,23.0,21.5,00.0,31.4,24.6,15.0,0001.8,0006.52,0009.16,0006.14
2023-04-23 18:57:00,,0828.8,5.00,0.00,23.0,21.6,00.0,31.5,24.6,14.9,0001.9,0006.51,0009.12,0006.15
2023-04-23 18:58:00,,0828.8,5.00,0.00,23.0,21.6,00.0,31.5,24.7,14.7,0002.1,0006.50,0009.07,0006.17
2023-04-23 18:59:00,,0828.8,5.00,0.00,23.1,21.6,00.0,31.5,24.7,14.8,0002.1,0006.50,0009.06,0006.18
